Location: Auckland
(36.8670°S, 174.7670°E)
Time: 09:51:13
(UTC+12:00)

A-11 Canister half - Pass Details

Date: 24 July 2019
Orbit: 1526 x 1683 km, 47.3° (Epoch: 23 August)

Event Time Altitude Azimuth Distance (km) Brightness Sun altitude
Rises 08:18:54 0° 300° (WNW) 4,675 11.3 8.4°
Reaches altitude 10° 08:21:55 10° 299° (WNW) 3,703 10.8 8.9°
Maximum altitude 08:31:18 80° 211° (SSW) 1,585 9.2 10.5°
Drops below altitude 10° 08:41:00 10° 123° (ESE) 3,817 11.4 12.0°
Sets 08:44:10 0° 121° (ESE) 4,825 11.9 12.5°
